SAS47T ESSA-ESSV

Flight info

Callsign SAS47T
Flight time 0h 37m
Altitude 17000
Route BABAP T316 GOTAL
Aircraft AT76/M-SDFGIRY/S

Departure

Time 2026-04-16 08:13
Airport Stockholm-Arlanda Airport (ESSA)

Arrival

Time 2026-04-16 08:51
Airport Visby Airport (ESSV)
Time Latitude Longitude Altitude Speed Heading
2026-04-16 07:35 59.65134 17.92796 107 ft 0 kts 192°
2026-04-16 07:59 59.65144 17.92800 107 ft 3 kts 192°
2026-04-16 08:00 59.65164 17.92809 108 ft 3 kts 195°
2026-04-16 08:00 59.65183 17.92820 108 ft 3 kts 200°
2026-04-16 08:00 59.65201 17.92836 108 ft 3 kts 216°
2026-04-16 08:00 59.65214 17.92860 104 ft 3 kts 255°
2026-04-16 08:01 59.65216 17.92879 105 ft 1 kts 275°
2026-04-16 08:01 59.65216 17.92884 105 ft 0 kts 275°
2026-04-16 08:06 59.65215 17.92887 105 ft 0 kts 275°
2026-04-16 08:06 59.65216 17.92874 105 ft 0 kts 282°
2026-04-16 08:06 59.65217 17.92871 105 ft 0 kts 281°
2026-04-16 08:07 59.65225 17.92851 108 ft 5 kts 318°
2026-04-16 08:07 59.65254 17.92818 108 ft 5 kts 332°
2026-04-16 08:07 59.65285 17.92786 108 ft 5 kts 332°
2026-04-16 08:07 59.65319 17.92749 107 ft 6 kts 332°
2026-04-16 08:08 59.65353 17.92713 108 ft 5 kts 332°
2026-04-16 08:08 59.65418 17.92643 107 ft 19 kts 331°
2026-04-16 08:08 59.65483 17.92577 103 ft 13 kts 345°
2026-04-16 08:08 59.65537 17.92674 103 ft 10 kts 75°
2026-04-16 08:09 59.65559 17.92844 105 ft 13 kts 76°
2026-04-16 08:09 59.65579 17.93003 104 ft 11 kts 76°
2026-04-16 08:09 59.65597 17.93142 106 ft 10 kts 75°
2026-04-16 08:09 59.65615 17.93268 106 ft 9 kts 63°
2026-04-16 08:10 59.65657 17.93359 105 ft 9 kts 45°
2026-04-16 08:10 59.65698 17.93438 106 ft 7 kts 45°
2026-04-16 08:10 59.65723 17.93494 108 ft 4 kts 49°
2026-04-16 08:10 59.65738 17.93527 109 ft 2 kts 47°
2026-04-16 08:11 59.65746 17.93545 109 ft 1 kts 47°
2026-04-16 08:11 59.65753 17.93558 109 ft 4 kts 47°
2026-04-16 08:11 59.65786 17.93627 112 ft 6 kts 47°
2026-04-16 08:11 59.65809 17.93678 111 ft 4 kts 47°
2026-04-16 08:12 59.65824 17.93706 113 ft 3 kts 45°
2026-04-16 08:12 59.65849 17.93746 111 ft 5 kts 34°
2026-04-16 08:12 59.65867 17.93819 114 ft 11 kts 76°
2026-04-16 08:12 59.65926 17.94245 117 ft 63 kts 75°
2026-04-16 08:13 59.66081 17.95474 123 ft 117 kts 75°
2026-04-16 08:13 59.66295 17.97123 482 ft 128 kts 73°
2026-04-16 08:13 59.66538 17.98853 1060 ft 129 kts 72°
2026-04-16 08:13 59.66818 18.00507 1732 ft 125 kts 77°
2026-04-16 08:14 59.66999 18.02178 2363 ft 122 kts 79°
2026-04-16 08:14 59.67171 18.03968 2466 ft 147 kts 79°
2026-04-16 08:14 59.67375 18.06108 2585 ft 165 kts 78°
2026-04-16 08:14 59.67604 18.08313 3054 ft 164 kts 78°
2026-04-16 08:15 59.67839 18.10537 3453 ft 166 kts 78°
2026-04-16 08:15 59.68077 18.12779 3861 ft 167 kts 78°
2026-04-16 08:15 59.68321 18.15032 4286 ft 168 kts 77°
2026-04-16 08:15 59.68567 18.17304 4692 ft 170 kts 77°
2026-04-16 08:16 59.68814 18.19597 5104 ft 171 kts 77°
2026-04-16 08:16 59.69066 18.21906 5537 ft 172 kts 77°
2026-04-16 08:16 59.69317 18.24223 5949 ft 173 kts 77°
2026-04-16 08:16 59.69572 18.26561 6359 ft 174 kts 76°
2026-04-16 08:17 59.69829 18.28913 6756 ft 176 kts 77°
2026-04-16 08:17 59.70087 18.31283 7128 ft 176 kts 77°
2026-04-16 08:17 59.70346 18.33664 7494 ft 178 kts 77°
2026-04-16 08:17 59.70605 18.36061 7870 ft 179 kts 77°
2026-04-16 08:18 59.70862 18.38439 8249 ft 178 kts 77°
2026-04-16 08:19 59.63841 18.48706 10627 ft 195 kts 150°
2026-04-16 08:20 59.62628 18.49923 10936 ft 196 kts 149°
2026-04-16 08:20 59.61415 18.51157 11252 ft 196 kts 149°
2026-04-16 08:20 59.60203 18.52399 11557 ft 197 kts 149°
2026-04-16 08:20 59.58990 18.53642 11871 ft 197 kts 148°
2026-04-16 08:21 59.57768 18.54886 12200 ft 198 kts 148°
2026-04-16 08:21 59.56548 18.56141 12505 ft 198 kts 148°
2026-04-16 08:21 59.55325 18.57391 12807 ft 198 kts 148°
2026-04-16 08:21 59.54099 18.58641 13095 ft 199 kts 148°
2026-04-16 08:22 59.52868 18.59894 13391 ft 199 kts 148°
2026-04-16 08:22 59.51638 18.61149 13687 ft 199 kts 148°
2026-04-16 08:22 59.50405 18.62405 13977 ft 200 kts 148°
2026-04-16 08:22 59.49170 18.63663 14231 ft 200 kts 148°
2026-04-16 08:23 59.47932 18.64923 14479 ft 200 kts 148°
2026-04-16 08:23 59.46694 18.66181 14716 ft 201 kts 148°
2026-04-16 08:23 59.45450 18.67442 14953 ft 201 kts 148°
2026-04-16 08:23 59.44205 18.68702 15179 ft 202 kts 148°
2026-04-16 08:24 59.42958 18.69965 15413 ft 201 kts 149°
2026-04-16 08:24 59.41599 18.70634 15583 ft 211 kts 181°
2026-04-16 08:24 59.40146 18.69994 15811 ft 217 kts 191°
2026-04-16 08:24 59.38704 18.69101 16043 ft 218 kts 193°
2026-04-16 08:25 59.37265 18.68175 16265 ft 218 kts 193°
2026-04-16 08:25 59.35836 18.67273 16486 ft 218 kts 192°
2026-04-16 08:25 59.34363 18.66410 16697 ft 218 kts 191°
2026-04-16 08:25 59.32904 18.65596 16903 ft 219 kts 191°
2026-04-16 08:26 59.31457 18.64800 17076 ft 220 kts 191°
2026-04-16 08:26 59.29968 18.63979 17161 ft 225 kts 191°
2026-04-16 08:26 59.28439 18.63136 17191 ft 232 kts 191°
2026-04-16 08:26 59.26866 18.62271 17209 ft 237 kts 191°
2026-04-16 08:27 59.25253 18.61500 17217 ft 239 kts 183°
2026-04-16 08:27 59.23595 18.61232 17218 ft 241 kts 178°
2026-04-16 08:27 59.21910 18.61102 17220 ft 244 kts 178°
2026-04-16 08:27 59.20203 18.60954 17219 ft 247 kts 179°
2026-04-16 08:28 59.18453 18.60721 17220 ft 250 kts 180°
2026-04-16 08:28 59.16736 18.60445 17215 ft 252 kts 180°
2026-04-16 08:28 59.14963 18.60163 17215 ft 253 kts 180°
2026-04-16 08:28 59.13228 18.59891 17216 ft 254 kts 180°
2026-04-16 08:29 59.11461 18.59609 17225 ft 255 kts 180°
2026-04-16 08:29 59.09686 18.59331 17219 ft 256 kts 180°
2026-04-16 08:29 59.07906 18.59056 17217 ft 257 kts 180°
2026-04-16 08:29 59.06124 18.58775 17213 ft 257 kts 180°
2026-04-16 08:30 59.04341 18.58498 17216 ft 257 kts 180°
2026-04-16 08:30 59.02551 18.58216 17216 ft 258 kts 180°
2026-04-16 08:30 59.00766 18.57939 17216 ft 258 kts 180°
2026-04-16 08:30 58.98976 18.57657 17216 ft 258 kts 180°
2026-04-16 08:31 58.97187 18.57379 17214 ft 258 kts 180°
2026-04-16 08:31 58.95394 18.57106 17215 ft 258 kts 180°
2026-04-16 08:31 58.93602 18.56829 17207 ft 259 kts 180°
2026-04-16 08:31 58.91810 18.56542 17207 ft 259 kts 180°
2026-04-16 08:32 58.90016 18.56263 17208 ft 258 kts 180°
2026-04-16 08:32 58.88224 18.55987 17208 ft 258 kts 180°
2026-04-16 08:32 58.86430 18.55706 17208 ft 258 kts 180°
2026-04-16 08:32 58.84637 18.55429 17208 ft 258 kts 180°
2026-04-16 08:33 58.82845 18.55152 17215 ft 259 kts 180°
2026-04-16 08:33 58.81048 18.54876 17208 ft 259 kts 180°
2026-04-16 08:33 58.79250 18.54601 17205 ft 260 kts 180°
2026-04-16 08:33 58.77447 18.54320 17204 ft 260 kts 180°
2026-04-16 08:34 58.75642 18.54044 17206 ft 260 kts 180°
2026-04-16 08:34 58.73839 18.53765 17205 ft 260 kts 180°
2026-04-16 08:34 58.72036 18.53488 17203 ft 260 kts 180°
2026-04-16 08:34 58.70231 18.53213 17203 ft 260 kts 180°
2026-04-16 08:35 58.68449 18.52937 17201 ft 260 kts 180°
2026-04-16 08:35 58.66643 18.52661 17200 ft 260 kts 180°
2026-04-16 08:35 58.64841 18.52383 17200 ft 260 kts 180°
2026-04-16 08:35 58.63034 18.52107 17200 ft 260 kts 180°
2026-04-16 08:36 58.61230 18.51834 17200 ft 260 kts 180°
2026-04-16 08:36 58.59424 18.51556 17200 ft 260 kts 180°
2026-04-16 08:36 58.57616 18.51282 17200 ft 261 kts 180°
2026-04-16 08:36 58.55807 18.51004 17200 ft 261 kts 180°
2026-04-16 08:37 58.53990 18.50728 17217 ft 262 kts 180°
2026-04-16 08:37 58.52167 18.50453 17076 ft 267 kts 180°
2026-04-16 08:37 58.50266 18.50165 16698 ft 280 kts 180°
2026-04-16 08:37 58.48290 18.49863 16315 ft 289 kts 180°
2026-04-16 08:38 58.46260 18.49558 15939 ft 296 kts 180°
2026-04-16 08:38 58.44183 18.49241 15569 ft 302 kts 180°
2026-04-16 08:38 58.42075 18.48925 15212 ft 306 kts 180°
2026-04-16 08:38 58.39963 18.48603 14994 ft 304 kts 181°
2026-04-16 08:39 58.37858 18.48287 14782 ft 303 kts 181°
2026-04-16 08:39 58.35755 18.47971 14570 ft 303 kts 181°
2026-04-16 08:39 58.33660 18.47653 14362 ft 301 kts 181°
2026-04-16 08:39 58.31705 18.47325 14125 ft 265 kts 181°
2026-04-16 08:40 58.29881 18.47000 13798 ft 264 kts 181°
2026-04-16 08:40 58.28030 18.46716 13482 ft 269 kts 181°
2026-04-16 08:40 58.26149 18.46431 13193 ft 273 kts 182°
2026-04-16 08:40 58.24249 18.46149 12916 ft 274 kts 181°
2026-04-16 08:41 58.22352 18.46049 12642 ft 272 kts 176°
2026-04-16 08:41 58.20464 18.46127 12372 ft 270 kts 175°
2026-04-16 08:41 58.18582 18.46227 12103 ft 270 kts 176°
2026-04-16 08:41 58.16709 18.46291 11843 ft 269 kts 177°
2026-04-16 08:42 58.14833 18.46305 11582 ft 269 kts 178°
2026-04-16 08:42 58.12959 18.46312 11320 ft 269 kts 178°
2026-04-16 08:42 58.11105 18.46321 10995 ft 271 kts 178°
2026-04-16 08:42 58.09183 18.46329 10512 ft 273 kts 178°
2026-04-16 08:43 58.07290 18.46339 10038 ft 271 kts 178°
2026-04-16 08:43 58.05436 18.46346 9526 ft 269 kts 178°
2026-04-16 08:43 58.03566 18.46356 9014 ft 268 kts 178°
2026-04-16 08:43 58.01709 18.46374 8511 ft 266 kts 178°
2026-04-16 08:44 57.99862 18.46373 8015 ft 265 kts 178°
2026-04-16 08:44 57.98025 18.46373 7526 ft 263 kts 177°
2026-04-16 08:44 57.96203 18.46370 7038 ft 261 kts 177°
2026-04-16 08:44 57.94392 18.46346 6575 ft 259 kts 177°
2026-04-16 08:45 57.92627 18.46306 6070 ft 241 kts 177°
2026-04-16 08:45 57.91030 18.46253 5565 ft 220 kts 177°
2026-04-16 08:45 57.89545 18.46202 5072 ft 207 kts 177°
2026-04-16 08:45 57.88118 18.46161 4575 ft 207 kts 177°
2026-04-16 08:46 57.86667 18.46132 4082 ft 210 kts 177°
2026-04-16 08:46 57.85193 18.46123 3596 ft 213 kts 177°
2026-04-16 08:46 57.83707 18.46113 3108 ft 213 kts 181°
2026-04-16 08:46 57.82241 18.45652 2621 ft 215 kts 191°
2026-04-16 08:47 57.80815 18.44996 2183 ft 202 kts 194°
2026-04-16 08:47 57.79565 18.44259 1992 ft 177 kts 199°
2026-04-16 08:47 57.78439 18.43406 1887 ft 178 kts 201°
2026-04-16 08:47 57.77280 18.42509 1834 ft 181 kts 201°
2026-04-16 08:48 57.76131 18.41661 1809 ft 173 kts 200°
2026-04-16 08:48 57.75074 18.40923 1789 ft 151 kts 199°
2026-04-16 08:48 57.74152 18.40284 1690 ft 138 kts 200°
2026-04-16 08:48 57.73265 18.39649 1495 ft 130 kts 201°
2026-04-16 08:49 57.72460 18.39045 1322 ft 124 kts 201°
2026-04-16 08:49 57.71656 18.38457 1123 ft 125 kts 199°
2026-04-16 08:49 57.70816 18.37868 912 ft 128 kts 203°
2026-04-16 08:49 57.69984 18.37294 719 ft 126 kts 198°
2026-04-16 08:50 57.69180 18.36731 549 ft 123 kts 206°
2026-04-16 08:50 57.68413 18.36142 332 ft 115 kts 199°
2026-04-16 08:50 57.67643 18.35655 314 ft 125 kts 202°
2026-04-16 08:50 57.66827 18.35023 160 ft 120 kts 201°
2026-04-16 08:51 57.66276 18.34624 148 ft 51 kts 201°
2026-04-16 08:51 57.66021 18.34430 145 ft 25 kts 201°
2026-04-16 08:51 57.65965 18.34319 147 ft 9 kts 289°
2026-04-16 08:51 57.65986 18.34218 145 ft 9 kts 291°
2026-04-16 08:52 57.66012 18.34096 142 ft 10 kts 291°
2026-04-16 08:52 57.66036 18.33983 143 ft 8 kts 292°
2026-04-16 08:52 57.66064 18.33942 144 ft 0 kts 334°